| time (UTC) | temp F | wind direction | speed MPH | gust MPH | rain 1hr in | rain 24hr in | rain mn in | humidity % | barometer mb |
| 20260506211538 | 53 | 267 | 3.0 | 11.0 | 0.00 | 0.31 | 0.31 | 62 | 1007.1 |
| 20260506210032 | 54 | 310 | 2.0 | 11.0 | 0.00 | 0.31 | 0.31 | 62 | 1006.7 |
| 20260506204523 | 59 | 343 | 3.0 | 10.0 | 0.00 | 0.31 | 0.31 | 65 | 1006.6 |
| 20260506203018 | 59 | 230 | 1.0 | 4.0 | 0.00 | 0.31 | 0.31 | 65 | 1006.1 |
| 20260506201516 | 59 | 215 | 3.0 | 8.0 | 0.00 | 0.31 | 0.31 | 65 | 1006.3 |
| 20260506200017 | 59 | 236 | 2.0 | 8.0 | 0.00 | 0.31 | 0.31 | 65 | 1006.4 |
| 20260506194514 | 59 | 240 | 2.0 | 9.0 | 0.00 | 0.31 | 0.31 | 65 | 1006.4 |
| 20260506193018 | 59 | 250 | 3.0 | 9.0 | 0.00 | 0.31 | 0.31 | 65 | 1006.4 |
| 20260506191512 | 59 | 230 | 2.0 | 7.0 | 0.00 | 0.31 | 0.31 | 65 | 1006.4 |
| 20260506190009 | 58 | 246 | 3.0 | 11.0 | 0.00 | 0.31 | 0.31 | 65 | 1006.7 |
| 20260506184508 | 58 | 216 | 5.0 | 10.0 | 0.00 | 0.31 | 0.31 | 65 | 1006.6 |
| 20260506183006 | 58 | 220 | 4.0 | 11.0 | 0.01 | 0.31 | 0.31 | 65 | 1006.8 |
| 20260506181514 | 58 | 236 | 5.0 | 11.0 | 0.01 | 0.31 | 0.31 | 64 | 1006.8 |
| 20260506180004 | 58 | 228 | 3.0 | 6.0 | 0.03 | 0.31 | 0.31 | 64 | 1006.9 |
| 20260506174502 | 58 | 166 | 2.0 | 9.0 | 0.05 | 0.31 | 0.31 | 64 | 1006.8 |
| 20260506173004 | 59 | 228 | 2.0 | 7.0 | 0.05 | 0.30 | 0.30 | 64 | 1006.8 |
| 20260506171609 | 58 | 239 | 4.0 | 8.0 | 0.05 | 0.30 | 0.30 | 63 | 1007.0 |
| 20260506170112 | 58 | 230 | 2.0 | 7.0 | 0.03 | 0.28 | 0.28 | 63 | 1007.0 |
| 20260506164559 | 58 | 224 | 1.0 | 5.0 | 0.04 | 0.26 | 0.26 | 62 | 1007.0 |
| 20260506163100 | 58 | 259 | 3.0 | 6.0 | 0.06 | 0.25 | 0.25 | 62 | 1006.9 |
| 20260506161556 | 59 | 227 | 1.0 | 3.0 | 0.08 | 0.25 | 0.25 | 62 | 1007.0 |
| 20260506160055 | 58 | 227 | 2.0 | 8.0 | 0.09 | 0.25 | 0.25 | 61 | 1007.1 |
| 20260506154610 | 58 | 229 | 2.0 | 7.0 | 0.08 | 0.22 | 0.22 | 60 | 1007.4 |
| 20260506153054 | 59 | 242 | 2.0 | 7.0 | 0.04 | 0.18 | 0.18 | 59 | 1007.5 |
| 20260506151552 | 59 | 231 | 2.0 | 4.0 | 0.04 | 0.17 | 0.17 | 58 | 1007.3 |
| 20260506150051 | 59 | 236 | 1.0 | 4.0 | 0.05 | 0.16 | 0.16 | 58 | 1007.1 |
| 20260506144555 | 59 | 225 | 2.0 | 4.0 | 0.06 | 0.14 | 0.14 | 57 | 1007.1 |
| 20260506143050 | 59 | 233 | 0.0 | 3.0 | 0.08 | 0.14 | 0.14 | 57 | 1007.2 |
| 20260506141548 | 58 | 233 | 0.0 | 2.0 | 0.08 | 0.12 | 0.12 | 56 | 1007.3 |
| 20260506140046 | 58 | 233 | 1.0 | 4.0 | 0.09 | 0.11 | 0.11 | 56 | 1007.6 |
| 20260506134546 | 59 | 233 | 0.0 | 5.0 | 0.07 | 0.08 | 0.08 | 56 | 1007.8 |
| 20260506133058 | 59 | 232 | 1.0 | 4.0 | 0.06 | 0.06 | 0.06 | 55 | 1007.9 |
| 20260506131545 | 59 | 233 | 2.0 | 7.0 | 0.04 | 0.04 | 0.04 | 56 | 1008.1 |
| 20260506130044 | 60 | 232 | 3.0 | 6.0 | 0.02 | 0.02 | 0.02 | 57 | 1008.1 |
| 20260506124543 | 60 | 223 | 2.0 | 8.0 | 0.01 | 0.01 | 0.01 | 57 | 1007.8 |
| 20260506123044 | 61 | 228 | 2.0 | 7.0 | 0.00 | 0.00 | 0.00 | 54 | 1007.5 |
| 20260506121537 | 62 | 221 | 2.0 | 5.0 | 0.00 | 0.00 | 0.00 | 51 | 1007.6 |
| 20260506120038 | 62 | 227 | 0.0 | 2.0 | 0.00 | 0.00 | 0.00 | 50 | 1007.6 |
| 20260506114540 | 62 | 227 | 1.0 | 4.0 | 0.00 | 0.00 | 0.00 | 50 | 1007.7 |
| 20260506113035 | 62 | 238 | 1.0 | 3.0 | 0.00 | 0.00 | 0.00 | 49 | 1007.5 |
| 20260506111534 | 62 | 238 | 0.0 | 4.0 | 0.00 | 0.00 | 0.00 | 48 | 1007.5 |
| 20260506110040 | 62 | 237 | 2.0 | 5.0 | 0.00 | 0.00 | 0.00 | 47 | 1007.6 |
| 20260506104555 | 62 | 220 | 3.0 | 6.0 | 0.00 | 0.00 | 0.00 | 47 | 1007.4 |
| 20260506103028 | 61 | 229 | 1.0 | 3.0 | 0.00 | 0.00 | 0.00 | 49 | 1007.0 |
| 20260506101526 | 59 | 229 | 1.0 | 3.0 | 0.00 | 0.00 | 0.00 | 50 | 1007.2 |
| 20260506100025 | 59 | 229 | 0.0 | 0.0 | 0.00 | 0.00 | 0.00 | 50 | 1007.2 |
| 20260506094532 | 59 | 229 | 1.0 | 4.0 | 0.00 | 0.00 | 0.00 | 51 | 1007.4 |
| 20260506093024 | 59 | 229 | 0.0 | 0.0 | 0.00 | 0.00 | 0.00 | 50 | 1007.1 |
| 20260506091523 | 59 | 229 | 0.0 | 0.0 | 0.00 | 0.00 | 0.00 | 50 | 1007.1 |
| 20260506090021 | 59 | 229 | 0.0 | 0.0 | 0.00 | 0.00 | 0.00 | 50 | 1007.5 |
| 20260506084521 | 59 | 229 | 0.0 | 0.0 | 0.00 | 0.02 | 0.00 | 50 | 1007.5 |
| 20260506083035 | 60 | 229 | 0.0 | 0.0 | 0.00 | 0.02 | 0.00 | 49 | 1007.7 |
| 20260506081520 | 60 | 229 | 0.0 | 1.0 | 0.00 | 0.02 | 0.00 | 48 | 1007.4 |
| 20260506073016 | 59 | 229 | 0.0 | 3.0 | 0.00 | 0.02 | 0.00 | 48 | 1007.8 |
| 20260506071513 | 59 | 229 | 0.0 | 0.0 | 0.00 | 0.02 | 0.00 | 50 | 1007.8 |
| 20260506061508 | 57 | 229 | 0.0 | 0.0 | 0.00 | 0.02 | 0.00 | 50 | 1008.1 |
| 20260506044613 | 58 | 229 | 0.0 | 0.0 | 0.00 | 0.02 | 0.00 | 50 | 1008.5 |
| 20260506043059 | 59 | 229 | 0.0 | 0.0 | 0.00 | 0.02 | 0.00 | 50 | 1008.7 |
| 20260506041557 | 59 | 229 | 0.0 | 0.0 | 0.00 | 0.02 | 0.00 | 50 | 1008.7 |
| 20260506040055 | 60 | 360 | 0.0 | 0.0 | 0.00 | 0.02 | 0.00 | 50 | 1008.7 |
| 20260506034600 | 61 | 227 | 0.0 | 0.0 | 0.00 | 0.02 | 0.02 | 50 | 1008.8 |
| 20260506033054 | 62 | 229 | 0.0 | 1.0 | 0.00 | 0.02 | 0.02 | 48 | 1008.6 |
| 20260506031557 | 63 | 229 | 0.0 | 2.0 | 0.00 | 0.02 | 0.02 | 47 | 1008.7 |
| 20260506030053 | 63 | 229 | 0.0 | 2.0 | 0.00 | 0.02 | 0.02 | 47 | 1008.7 |
| 20260506024552 | 63 | 229 | 1.0 | 2.0 | 0.00 | 0.02 | 0.02 | 47 | 1008.6 |
| 20260506023054 | 64 | 360 | 0.0 | 0.0 | 0.00 | 0.02 | 0.02 | 45 | 1008.7 |
| 20260506021556 | 66 | 360 | 0.0 | 0.0 | 0.00 | 0.02 | 0.02 | 43 | 1008.8 |
| 20260506020050 | 68 | 229 | 1.0 | 3.0 | 0.00 | 0.02 | 0.02 | 40 | 1008.7 |
| 20260506014550 | 68 | 229 | 0.0 | 2.0 | 0.00 | 0.02 | 0.02 | 39 | 1008.7 |
| 20260506013049 | 68 | 229 | 1.0 | 3.0 | 0.00 | 0.02 | 0.02 | 38 | 1008.5 |
| 20260506011552 | 68 | 229 | 0.0 | 2.0 | 0.00 | 0.02 | 0.02 | 40 | 1008.3 |
| 20260506010054 | 69 | 229 | 0.0 | 2.0 | 0.00 | 0.02 | 0.02 | 38 | 1008.0 |
| 20260506004546 | 70 | 229 | 0.0 | 2.0 | 0.00 | 0.02 | 0.02 | 37 | 1007.9 |
| 20260506003047 | 70 | 229 | 0.0 | 2.0 | 0.00 | 0.02 | 0.02 | 37 | 1007.9 |
| 20260506001547 | 71 | 229 | 0.0 | 2.0 | 0.00 | 0.02 | 0.02 | 36 | 1007.8 |
| 20260506000047 | 72 | 229 | 0.0 | 3.0 | 0.00 | 0.02 | 0.02 | 34 | 1007.6 |
| 20260505234606 | 72 | 229 | 1.0 | 7.0 | 0.00 | 0.02 | 0.02 | 34 | 1007.6 |
| 20260505233049 | 71 | 238 | 2.0 | 7.0 | 0.00 | 0.02 | 0.02 | 35 | 1007.6 |
| 20260505231544 | 72 | 215 | 1.0 | 5.0 | 0.00 | 0.02 | 0.02 | 35 | 1007.4 |
| 20260505230048 | 71 | 236 | 2.0 | 4.0 | 0.00 | 0.02 | 0.02 | 37 | 1007.3 |
| 20260505224543 | 71 | 236 | 2.0 | 4.0 | 0.00 | 0.02 | 0.02 | 37 | 1007.2 |
| 20260505223051 | 71 | 234 | 1.0 | 4.0 | 0.00 | 0.02 | 0.02 | 38 | 1006.9 |
| 20260505221542 | 71 | 234 | 1.0 | 4.0 | 0.00 | 0.02 | 0.02 | 39 | 1007.1 |
| 20260505220046 | 71 | 234 | 1.0 | 4.0 | 0.00 | 0.02 | 0.02 | 38 | 1007.0 |
| 20260505214553 | 72 | 208 | 1.0 | 4.0 | 0.00 | 0.02 | 0.02 | 36 | 1007.1 |
| 20260505213042 | 74 | 221 | 1.0 | 5.0 | 0.00 | 0.02 | 0.02 | 35 | 1007.0 |